"Pseudo-MPEC" for P11Vnx1

Created 2024 Jun 30 19:22:09 UT using Find_Orb

Click here for an explanation of pseudo-MPECs

 
 Astrometry: 
     P11Vnx1* C2024 06 10ZK74Pm$cW1'AstrometryBkR+poflL_X-@$V(^[sL1g*NDVAa.LWF51
     P11Vnx1  C2024 06 10#LDoS]gItCxy6Zs=E`Gt_=*Z$redacted;8`\of?clicksc,BY[fF51
     P11Vnx1  C2024 06 10w3?wJqgy1hMJ,hereWfor*0IjF?1L8explanation*jxMIYmGG2xF51

Station data:
(F51) Pan-STARRS 1, Haleakala  (N20.707234 W156.255910)  US/Hawaii.
   Observers J. Bulger, T. Lowe, A. Schultz, M. Willman. Measurers K.
   Chambers, S. Chastel, T. de Boer, L. Denneau, J. Fairlamb, H. Flewelling,
   M. Huber, C.-C. Lin, E. Magnier, Y. Ramanjooloo, R. Wainscoat, R. Weryk.
   1.8-m Ritchey-Chrétien + CCD.

Orbital elements:  P11Vnx1
   Perihelion 2024 Apr 5.25265 +/- 47.2 TT =  6:03:49 (JD 2460405.75265)
Epoch 2024 Jun 10.0 TT = JDT 2460471.5   Earth MOID: 0.0152   Ve: 0.0947
M   5.35353762 +/- 27               (J2000 ecliptic)             AutoNEOCP
n   0.08142591 +/- 0.203            Peri.  266.23566 +/- 90
a   5.27182473 +/- 8.77             Node   238.04357 +/- 42
e   0.9018687 +/- 0.255             Incl.   28.07115 +/- 10
P  12.10                   H 19.04  G  0.15   U 11.7  SR
q 0.51733084 +/- 0.507    Q 10.0263186 +/- 63.8
From 3 observations 2024 June 10 (39.3 min); mean residual 0".08
Residuals in arcseconds: 
240610 F51  .08-  .03-    240610 F51  .15+  .06+    240610 F51  .08-  .03-    

Ephemerides (geocentric):
Date (UTC) HH   RA             Dec           delta  r     elong  mag " sig PA
---- --------  ------------   ------------  ------ ------ -----  --- --------
2024 06 30 19  15 40 56.822   +03 03 58.11  .83514 1.6745 129.2 21.0  33d  87
2024 06 30 20  15 40 58.277   +03 03 43.17  .83601 1.6751 129.2 21.0  33d  87
2024 06 30 21  15 40 59.734   +03 03 28.22  .83688 1.6757 129.1 21.0  33d  87
2024 06 30 22  15 41 01.192   +03 03 13.26  .83774 1.6762 129.1 21.0  33d  86
2024 06 30 23  15 41 02.650   +03 02 58.29  .83861 1.6768 129.1 21.0  33d  86
2024 07 01 00  15 41 04.110   +03 02 43.30  .83948 1.6774 129.0 21.0  33d  86
2024 07 01 01  15 41 05.571   +03 02 28.31  .84035 1.6780 129.0 21.0  33d  86
2024 07 01 02  15 41 07.033   +03 02 13.31  .84122 1.6786 129.0 21.0  33d  86
2024 07 01 03  15 41 08.496   +03 01 58.30  .84209 1.6791 129.0 21.0  33d  86
2024 07 01 04  15 41 09.960   +03 01 43.28  .84296 1.6797 128.9 21.0  33d  86
2024 07 01 05  15 41 11.425   +03 01 28.25  .84383 1.6803 128.9 21.0  33d  86
2024 07 01 06  15 41 12.891   +03 01 13.21  .84471 1.6809 128.9 21.0  33d  86
2024 07 01 07  15 41 14.359   +03 00 58.16  .84558 1.6815 128.9 21.0  33d  86
2024 07 01 08  15 41 15.827   +03 00 43.10  .84645 1.6820 128.8 21.1  33d  86
2024 07 01 09  15 41 17.296   +03 00 28.03  .84732 1.6826 128.8 21.1  33d  86
2024 07 01 10  15 41 18.767   +03 00 12.96  .84819 1.6832 128.8 21.1  33d  86
2024 07 01 11  15 41 20.238   +02 59 57.87  .84906 1.6838 128.7 21.1  33d  86
2024 07 01 12  15 41 21.711   +02 59 42.77  .84993 1.6843 128.7 21.1  33d  86
2024 07 01 13  15 41 23.184   +02 59 27.66  .85080 1.6849 128.7 21.1  33d  86
2024 07 01 14  15 41 24.659   +02 59 12.55  .85168 1.6855 128.7 21.1  33d  86
2024 07 01 15  15 41 26.135   +02 58 57.42  .85255 1.6861 128.6 21.1  33d  86
2024 07 01 16  15 41 27.612   +02 58 42.29  .85342 1.6867 128.6 21.1  33d  86
2024 07 01 17  15 41 29.090   +02 58 27.15  .85429 1.6872 128.6 21.1  33d  86
2024 07 01 18  15 41 30.569   +02 58 11.99  .85517 1.6878 128.6 21.1  33d  86
2024 07 01 19  15 41 32.049   +02 57 56.83  .85604 1.6884 128.5 21.1  33d  86
2024 07 01 20  15 41 33.530   +02 57 41.66  .85691 1.6890 128.5 21.1  33d  86
2024 07 01 21  15 41 35.012   +02 57 26.48  .85778 1.6895 128.5 21.1  33d  86
2024 07 01 22  15 41 36.495   +02 57 11.29  .85866 1.6901 128.4 21.1  33d  86
2024 07 01 23  15 41 37.979   +02 56 56.09  .85953 1.6907 128.4 21.1  33d  86
2024 07 02 00  15 41 39.465   +02 56 40.88  .86040 1.6913 128.4 21.1  33d  86
2024 07 02 01  15 41 40.951   +02 56 25.66  .86128 1.6919 128.4 21.1  33d  86
2024 07 02 02  15 41 42.439   +02 56 10.44  .86215 1.6924 128.3 21.1  33d  86
2024 07 02 03  15 41 43.927   +02 55 55.20  .86303 1.6930 128.3 21.1  33d  86
2024 07 02 04  15 41 45.417   +02 55 39.96  .86390 1.6936 128.3 21.1  33d  86
2024 07 02 05  15 41 46.908   +02 55 24.71  .86478 1.6942 128.3 21.1  34d  86
2024 07 02 06  15 41 48.399   +02 55 09.44  .86565 1.6947 128.2 21.1  34d  86
2024 07 02 07  15 41 49.892   +02 54 54.17  .86653 1.6953 128.2 21.1  34d  86
2024 07 02 08  15 41 51.386   +02 54 38.89  .86740 1.6959 128.2 21.1  34d  86
2024 07 02 09  15 41 52.881   +02 54 23.61  .86828 1.6965 128.1 21.1  34d  86
2024 07 02 10  15 41 54.377   +02 54 08.31  .86915 1.6970 128.1 21.1  34d  86
2024 07 02 11  15 41 55.874   +02 53 53.00  .87003 1.6976 128.1 21.1  34d  86
2024 07 02 12  15 41 57.373   +02 53 37.69  .87090 1.6982 128.1 21.1  34d  86
2024 07 02 13  15 41 58.872   +02 53 22.36  .87178 1.6988 128.0 21.1  34d  86
2024 07 02 14  15 42 00.372   +02 53 07.03  .87265 1.6994 128.0 21.1  34d  86
2024 07 02 15  15 42 01.874   +02 52 51.69  .87353 1.6999 128.0 21.1  34d  86
2024 07 02 16  15 42 03.376   +02 52 36.34  .87441 1.7005 127.9 21.1  34d  86
2024 07 02 17  15 42 04.880   +02 52 20.99  .87528 1.7011 127.9 21.1  34d  86
2024 07 02 18  15 42 06.385   +02 52 05.62  .87616 1.7017 127.9 21.2  34d  86